Regional Weather Roundup
Issued by NWS

Home | Current Version | Previous Version | Graphics & Text | Print | Product List | Glossary On
Versions: 1 2 3 4 5 6 7 8 9 10 11 12 13 14 15 16 17 18 19 20 21 22 23 24 25 26 27 28 29 30 31 32 33 34 35 36 37 38 39 40 41 42 43 44 45 46 47 48 49 50
617
ASUS43 KIND 181859
RWRIN

WEATHER ROUNDUP FOR INDIANA
NATIONAL WEATHER SERVICE INDIANAPOLIS IN
200 PM EST SAT NOV 18 2017

NOTE: "FAIR" INDICATES FEW OR NO CLOUDS BELOW 12,000 FEET WITH NO
SIGNIFICANT WEATHER AND/OR OBSTRUCTIONS TO VISIBILITY.

* - STATION DOES NOT REPORT WEATHER SUCH AS PRECIPITATION OR FOG.

+ - STATION NOT QUALITY CONTROLLED BY THE NATIONAL WEATHER SERVICE.
    USE DATA WITH CAUTION...ESPECIALLY DEWPOINT AND RELATIVE
    HUMIDITY OBSERVATIONS.

INZ001>003-010>013-019-020-182000-
NORTHWEST INDIANA

CITY           SKY/WX    TMP DP  RH WIND       PRES   REMARKS
GARY /AIRPORT/ RAIN      43  41  93 N28G44    29.43R
KNOX *+        CLOUDY    43  41  93 N28G37    29.32F
LA PORTE +     DRIZZLE   43  40  91 N21G30    29.38R
MICHIGAN CITY+ LGT RAIN  43  43 100 N17G29    29.40R
MONTICELLO +   DRIZZLE   46  44  95 N20G29    29.30R
RENSSELAER +   LGT RAIN  45  39  81 N18G28    29.33S

$$

LMZ046-743>745-182000-
SOUTHERN LAKE MICHIGAN

STATION/POSITION TIME  TEMP    WIND        PRES    WAVE
                       AIR SEA DIR/SP/G            HT
                 (UTC) (F)     (DEG/KT/KT) (MB)    (FT)
BURNS HARBOR     1840   44     360/ 30/ 36  995.9R
MICHIGAN CITY    1830   44     360/ 35/ 39   N/A

$$

INZ004-005-014>016-021>024-182000-
NORTH CENTRAL INDIANA

CITY           SKY/WX    TMP DP  RH WIND       PRES   REMARKS
ELKHART        CLOUDY    43  39  87 N15       29.33S
GOSHEN         LGT RAIN  46  42  86 N21       29.29R
SOUTH BEND     CLOUDY    41  41 100 N22G29    29.35R
WARSAW +       CLOUDY    45  45 100 N13G18    29.28R

$$

INZ006>009-017-018-025>027-182000-
NORTHEAST INDIANA

CITY           SKY/WX    TMP DP  RH WIND       PRES   REMARKS
AUBURN +       CLOUDY    50  46  87 NW10      29.24R
FORT WAYNE     LGT RAIN  54  53  97 NW12G20   29.21R
KENDALLVILLE + LGT RAIN  46  46 100 N13       29.26R

$$

INZ028-029-035-036-043>045-051>053-182000-
WEST CENTRAL INDIANA

CITY           SKY/WX    TMP DP  RH WIND       PRES   REMARKS
CRAWFORDSVL +  RAIN      47  47 100 NW18      29.27R
GREENCASTLE +  LGT RAIN  63  59  88 W7G18     29.26R
LAFAYETTE      CLOUDY    46  45  96 N21G36    29.31R
TERRE HAUTE    TSTM      61  57  88 W14G25    29.26R VSB 3/4

$$

INZ030>032-037>040-046>048-054>057-064-065-182000-
CENTRAL INDIANA

CITY           SKY/WX    TMP DP  RH WIND       PRES   REMARKS
ANDERSON       CLOUDY    57  55  94 SW12G23   29.27
INDIANAPOLIS   LGT RAIN  64  60  87 SW23G32   29.24F
-EAGLE CREEK   LGT RAIN  64  59  83 W12G26    29.24S
KOKOMO +       LGT RAIN  50  49  96 N13       29.24R
MT COMFORT *+  CLOUDY    63  63 100 SW20G30   29.23F
SHELBYVILLE    CLOUDY    66  57  72 SW23G35   29.25F

$$

INZ033-034-041-042-049-050-058-059-182000-
EAST CENTRAL INDIANA

CITY           SKY/WX    TMP DP  RH WIND       PRES   REMARKS
MUNCIE         HVY RAIN  59  56  89 W12G23    29.23R FOG
RICHMOND +     CLOUDY    61  57  88 SW31G40   29.28F

$$

INZ060-061-067>069-081>083-085>088-182000-
SOUTHWEST INDIANA

CITY           SKY/WX    TMP DP  RH WIND       PRES   REMARKS
EVANSVILLE     LGT RAIN  68  61  78 SW25G37   29.33F
HUNTINGBURG +  CLOUDY    66  61  84 S24G36    29.32F

$$

INZ062-063-066-070>080-084-089>092-182000-
SOUTH CENTRAL AND SOUTHEAST INDIANA

CITY           SKY/WX    TMP DP  RH WIND       PRES   REMARKS
BLOOMINGTON    CLOUDY    65  58  78 SW20G32   29.27F
MADISON *+     CLOUDY    64  55  72 S23G35    29.35F

$$





USA.gov is the U.S. government's official web portal to all federal, state and local government web resources and services.